30.06.2024;15:00;2
30.06.2024;14:00;3
30.06.2024;13:00;3
30.06.2024;12:00;2
30.06.2024;11:00;1
30.06.2024;10:00;1
30.06.2024;09:00;2
30.06.2024;08:00;4
30.06.2024;07:00;9
30.06.2024;06:00;14
30.06.2024;05:00;15
30.06.2024;04:00;22
30.06.2024;03:00;20
30.06.2024;02:00;21
30.06.2024;01:00;32
30.06.2024;00:00;35
29.06.2024;23:00;31
29.06.2024;22:00;23
29.06.2024;21:00;15
29.06.2024;20:00;16
29.06.2024;19:00;17
29.06.2024;18:00;12
29.06.2024;17:00;14
29.06.2024;16:00;15
29.06.2024;15:00;16
29.06.2024;14:00;17
29.06.2024;13:00;20
29.06.2024;12:00;22
29.06.2024;11:00;15
29.06.2024;10:00;16
29.06.2024;09:00;16
29.06.2024;08:00;10
29.06.2024;07:00;6
29.06.2024;06:00;16
29.06.2024;05:00;23
29.06.2024;04:00;32
29.06.2024;03:00;19
29.06.2024;02:00;9
29.06.2024;01:00;7
29.06.2024;00:00;9
28.06.2024;23:00;13
28.06.2024;22:00;15
28.06.2024;21:00;21
28.06.2024;20:00;22
28.06.2024;19:00;27
28.06.2024;18:00;21
28.06.2024;17:00;14
28.06.2024;16:00;10
